Weather History for KJYG - February, 2014

Change the Weather History Date:

Wednesday, February 12, 2014

  Actual Average Record
Temperature  
Mean Temperature 16 °F -  
Max Temperature 21 °F - - ()
Min Temperature 12 °F - - ()
Degree Days  
Heating Degree Days 50    
Moisture  
Dew Point 12 °F    
Average Humidity 84    
Maximum Humidity 93    
Minimum Humidity 73    
Precipitation  
Precipitation 0.02 in - - ()
Sea Level Pressure  
Sea Level Pressure 30.00 in    
Wind  
Wind Speed 10 mph (SSW)    
Max Wind Speed 20 mph    
Max Gust Speed 22 mph    
Visibility 7 miles    
Events Snow    
T = Trace of Precipitation, MM = Missing Value Source: NWS Daily Summary

Daily Weather History Graph

Daily Weather History Graph

Search for Another Location

Airport or City:

Trip Planner

Search our weather history database for the weather conditions in past years. The results will help you decide how hot, cold, wet, or windy it might be!

Date:

Astronomy

Feb. 12, 2014 Rise Set
Actual Time 7:21 AM CST 5:43 PM CST
Civil Twilight 6:51 AM CST 6:13 PM CST
Nautical Twilight 6:17 AM CST 6:47 PM CST
Astronomical Twilight 5:44 AM CST 7:21 PM CST
Moon 3:57 PM CST (2/12) 5:40 AM CST (2/12)
Length of Visible Light 11h 21m
Length of Day
10h 22m
Waxing Gibbous, 95% of the Moon is Illuminated
Feb 12
Waxing Gibbous
Feb 14
Full
Feb 22
Last Quarter
Mar 1
New
Mar 8
First Quarter

Hourly Weather History & Observations

Time (CST) Temp. Windchill Dew Point Humidity Pressure Visibility Wind Dir Wind Speed Gust Speed Precip Events Conditions
12:15 AM 17.6 °F 3.2 °F 10.4 °F 73% 30.02 in 10.0 mi South 15.0 mph - N/A   Mostly Cloudy
12:34 AM 17.6 °F 3.2 °F 10.4 °F 73% 30.03 in 10.0 mi South 15.0 mph - N/A   Overcast
12:55 AM 17.6 °F 3.7 °F 10.4 °F 73% 30.04 in 10.0 mi South 13.8 mph - N/A   Mostly Cloudy
1:15 AM 17.6 °F 3.7 °F 10.4 °F 73% 30.03 in 10.0 mi South 13.8 mph - N/A   Mostly Cloudy
1:34 AM 17.6 °F 3.2 °F 10.4 °F 73% 30.03 in 10.0 mi South 15.0 mph - N/A   Overcast
1:55 AM 17.6 °F 3.7 °F 10.4 °F 73% 30.03 in 10.0 mi South 13.8 mph - N/A   Mostly Cloudy
2:15 AM 17.6 °F 5.0 °F 12.2 °F 79% 30.03 in 10.0 mi South 11.5 mph - N/A   Mostly Cloudy
2:35 AM 17.6 °F 5.0 °F 12.2 °F 79% 30.03 in 10.0 mi South 11.5 mph - N/A   Scattered Clouds
2:55 AM 19.4 °F 7.9 °F 12.2 °F 74% 30.03 in 10.0 mi South 10.4 mph - N/A   Mostly Cloudy
3:15 AM 19.4 °F 9.5 °F 12.2 °F 74% 30.03 in 7.0 mi South 8.1 mph - N/A Snow Light Snow
3:34 AM 19.4 °F 11.5 °F 12.2 °F 74% 30.03 in 10.0 mi South 5.8 mph - N/A   Scattered Clouds
3:55 AM 17.6 °F 9.3 °F 12.2 °F 79% 30.02 in 7.0 mi South 5.8 mph - N/A Snow Light Snow
4:14 AM 17.6 °F 9.3 °F 14.0 °F 86% 30.02 in 1.8 mi South 5.8 mph - N/A Snow Light Snow
4:35 AM 17.6 °F 12.3 °F 15.8 °F 93% 30.03 in 1.0 mi SSW 3.5 mph - N/A Snow Snow
4:55 AM 17.6 °F 12.3 °F 15.8 °F 93% 30.04 in 2.0 mi SSW 3.5 mph - N/A Snow Light Snow
5:15 AM 17.6 °F - 15.8 °F 93% 30.04 in 2.5 mi Calm Calm - N/A Snow Light Snow
5:35 AM 17.6 °F - 15.8 °F 93% 30.05 in 1.5 mi Calm Calm - N/A Snow Light Snow
5:55 AM 17.6 °F - 15.8 °F 93% 30.05 in 1.8 mi Calm Calm - 0.01 in Snow Light Snow
6:15 AM 17.6 °F - 15.8 °F 93% 30.05 in 3.0 mi Calm Calm - N/A Snow Light Snow
6:34 AM 17.6 °F - 15.8 °F 93% 30.05 in 4.0 mi Calm Calm - N/A Snow Light Snow
6:55 AM 17.6 °F - 15.8 °F 93% 30.05 in 5.0 mi Calm Calm - N/A   Mostly Cloudy
7:15 AM 17.6 °F 10.7 °F 15.8 °F 93% 30.06 in 4.0 mi West 4.6 mph - 0.01 in Snow Light Snow
7:35 AM 17.6 °F 3.2 °F 14.0 °F 86% 30.07 in 5.0 mi WNW 15.0 mph - 0.01 in   Overcast
7:54 AM 15.8 °F 1.4 °F 12.2 °F 86% 30.08 in 7.0 mi WNW 13.8 mph - 0.01 in   Overcast
8:15 AM 15.8 °F 0.9 °F 10.4 °F 79% 30.09 in 7.0 mi NW 15.0 mph - N/A   Overcast
8:34 AM 14.0 °F -0.8 °F 10.4 °F 86% 30.09 in 10.0 mi WNW 13.8 mph - N/A   Overcast
8:55 AM 12.2 °F -4.3 °F 8.6 °F 85% 30.10 in 10.0 mi NW 16.1 mph - N/A   Overcast
9:15 AM 12.2 °F -2.5 °F 10.4 °F 92% 30.10 in 4.0 mi NW 12.7 mph - N/A   Overcast
9:35 AM 12.2 °F -1.0 °F 10.4 °F 92% 30.10 in 5.0 mi WNW 10.4 mph - N/A   Overcast
9:55 AM 14.0 °F 0.5 °F 10.4 °F 86% 30.11 in 10.0 mi WNW 11.5 mph - N/A   Overcast
10:15 AM 14.0 °F 0.5 °F 10.4 °F 86% 30.11 in 5.0 mi WNW 11.5 mph - N/A   Overcast
10:34 AM 14.0 °F -0.8 °F 8.6 °F 79% 30.12 in 4.0 mi WNW 13.8 mph - N/A   Haze
10:55 AM 12.2 °F -2.5 °F 8.6 °F 85% 30.11 in 5.0 mi WNW 12.7 mph - N/A   Overcast
11:15 AM 12.2 °F -0.2 °F 8.6 °F 85% 30.11 in 7.0 mi WNW 9.2 mph - N/A   Overcast
11:35 AM 12.2 °F -3.1 °F 8.6 °F 85% 30.11 in 10.0 mi WNW 13.8 mph - N/A   Overcast
11:55 AM 12.2 °F -1.8 °F 8.6 °F 85% 30.10 in 10.0 mi WNW 11.5 mph - N/A   Overcast
12:15 PM 12.2 °F -1.0 °F 8.6 °F 85% 30.09 in 10.0 mi West 10.4 mph - N/A   Overcast
12:34 PM 14.0 °F 2.0 °F 8.6 °F 79% 30.08 in 10.0 mi WNW 9.2 mph - N/A   Overcast
12:55 PM 15.8 °F 6.1 °F 8.6 °F 73% 30.08 in 10.0 mi West 6.9 mph - N/A   Overcast
1:15 PM 15.8 °F 5.1 °F 10.4 °F 79% 30.07 in 10.0 mi WNW 8.1 mph - N/A   Overcast
1:34 PM 15.8 °F 5.1 °F 10.4 °F 79% 30.07 in 10.0 mi WNW 8.1 mph - N/A   Overcast
1:55 PM 15.8 °F 2.7 °F 10.4 °F 79% 30.08 in 10.0 mi WNW 11.5 mph - N/A   Overcast
2:15 PM 15.8 °F 5.1 °F 8.6 °F 73% 30.06 in 10.0 mi WNW 8.1 mph - N/A   Overcast
2:34 PM 15.8 °F 7.2 °F 10.4 °F 79% 30.05 in 10.0 mi NW 5.8 mph - N/A   Overcast
2:55 PM 15.8 °F 7.2 °F 10.4 °F 79% 30.03 in 10.0 mi WNW 5.8 mph - N/A   Overcast
3:15 PM 15.8 °F 8.6 °F 10.4 °F 79% 30.03 in 10.0 mi WNW 4.6 mph - N/A   Overcast
3:34 PM 15.8 °F - 10.4 °F 79% 30.01 in 7.0 mi Calm Calm - N/A   Overcast
3:55 PM 15.8 °F - 10.4 °F 79% 30.00 in 7.0 mi Calm Calm - N/A   Overcast
4:14 PM 15.8 °F - 10.4 °F 79% 29.99 in 10.0 mi Calm Calm - N/A   Overcast
4:35 PM 15.8 °F 8.6 °F 10.4 °F 79% 29.97 in 10.0 mi SE 4.6 mph - N/A   Overcast
4:55 PM 15.8 °F - 10.4 °F 79% 29.97 in 10.0 mi Calm Calm - N/A   Overcast
5:14 PM 15.8 °F 10.2 °F 12.2 °F 86% 29.95 in 10.0 mi SE 3.5 mph - N/A   Overcast
5:35 PM 15.8 °F 8.6 °F 12.2 °F 86% 29.95 in 10.0 mi ESE 4.6 mph - N/A   Overcast
5:55 PM 15.8 °F 8.6 °F 12.2 °F 86% 29.95 in 10.0 mi SE 4.6 mph - N/A   Overcast
6:15 PM 15.8 °F 7.2 °F 12.2 °F 86% 29.95 in 10.0 mi SE 5.8 mph - N/A   Overcast
6:35 PM 15.8 °F 6.1 °F 12.2 °F 86% 29.95 in 10.0 mi SE 6.9 mph - N/A   Overcast
6:55 PM 17.6 °F 7.3 °F 14.0 °F 86% 29.94 in 7.0 mi SE 8.1 mph - N/A   Overcast
7:15 PM 17.6 °F 6.4 °F 15.8 °F 93% 29.94 in 7.0 mi SSE 9.2 mph - N/A   Overcast
7:35 PM 17.6 °F 5.0 °F 15.8 °F 93% 29.93 in 5.0 mi SSE 11.5 mph - N/A   Overcast
7:55 PM 19.4 °F 6.6 °F 15.8 °F 86% 29.91 in 4.0 mi SSE 12.7 mph - N/A   Overcast
8:14 PM 19.4 °F 5.5 °F 15.8 °F 86% 29.90 in 4.0 mi South 15.0 mph - N/A   Overcast
8:34 PM 19.4 °F 6.6 °F 15.8 °F 86% 29.88 in 4.0 mi SSE 12.7 mph 18.4 mph N/A   Overcast
8:55 PM 19.4 °F 4.5 °F 15.8 °F 86% 29.86 in 4.0 mi SSE 17.3 mph 21.9 mph N/A   Overcast
9:15 PM 19.4 °F 3.6 °F 15.8 °F 86% 29.84 in 4.0 mi SSE 19.6 mph - N/A   Overcast
9:35 PM 19.4 °F 5.0 °F 15.8 °F 86% 29.84 in 5.0 mi SSE 16.1 mph - N/A   Overcast
9:54 PM 19.4 °F 6.6 °F 15.8 °F 86% 29.85 in 7.0 mi South 12.7 mph - N/A   Overcast
10:15 PM 19.4 °F 5.5 °F 15.8 °F 86% 29.85 in 7.0 mi South 15.0 mph - N/A   Overcast
10:35 PM 19.4 °F 6.6 °F 15.8 °F 86% 29.82 in 7.0 mi SSE 12.7 mph - N/A   Overcast
10:55 PM 19.4 °F 5.5 °F 15.8 °F 86% 29.79 in 7.0 mi SSE 15.0 mph - N/A   Overcast
11:15 PM 19.4 °F 5.0 °F 15.8 °F 86% 29.79 in 7.0 mi SSE 16.1 mph 19.6 mph N/A   Overcast
11:35 PM 19.4 °F 3.6 °F 17.6 °F 93% 29.76 in 5.0 mi SSE 19.6 mph - N/A   Overcast
11:55 PM 21.2 °F 6.8 °F 17.6 °F 86% 29.76 in 5.0 mi South 17.3 mph - N/A   Overcast